Find Starlink 36859

NORAD ID: 68710 Int'l Des: 2026-081 Owner: SPXS Country: US Constellation: starlink operational
LEOCIRCULAR

現在のビュー

3D地球を読み込み中...

Starlink 36859について

説明を読み込み中...

次回通過

Passes for default location (London). Set your location on the main map for personalized predictions.

高度履歴

Loading altitude history...

軌道要素

1 68710U 26081M 26151.16668980 .00014044 00000-0 41287-3 0 9996
2 68710 53.1585 10.9539 0001099 85.7276 181.7875 15.35391981 5953
Epoch: May 31, 2026 • Age: 7 hours

現在のステータス

高度 460.6 km
速度 7.64 km/s
衛星直下点 -0.32°S, 39.27°W
打ち上げ日 Apr 14, 2026
運用期間 0.1 years
タイプ internet

技術仕様

分類 Payload
質量 575.00 kg
乾燥質量 530.00 kg
総質量 575.00 kg
長さ 0.30 m
直径 4.10 m
スパン 29.00 m
形状 Box + pan
製造者 SPXS
バスタイプ Starlink V2MO
フェーズステータス In Orbit
所有者/国 SPXS/US

Most Searched